Simultaneous Nadir Overpasses (SNOs) Predictions

Prediction of SNOs between LANDSAT-8 and METOP-B Satellite Orbit:

Table of predicted SNOs for the next 14.0 days since TLE Epoch: 12/2/2016
Index Date (LANDSAT-8) Time (LANDSAT-8) Lat,Lon (LANDSAT-8) SZA (LANDSAT-8 ) Date (METOP-B) Time (METOP-B) Lat,Lon (METOP-B) SZA (METOP-B ) Distance(km) Time Diff (sec)
1 12/04/2016 07:00:52 81.08, 114.07 105.50 12/04/2016 06:59:50 81.08, 114.02 105.46 1.14 62
2 12/04/2016 07:50:18 -81.10, -78.01 74.46 12/04/2016 07:50:29 -81.11, -77.89 74.44 1.94 11
3 12/07/2016 02:35:07 81.08,-179.64 105.78 12/07/2016 02:34:13 81.08,-179.51 105.78 2.32 54
4 12/07/2016 03:24:32 -81.10, -11.68 74.17 12/07/2016 03:24:52 -81.10, -11.75 74.17 1.14 20
5 12/09/2016 22:09:20 81.09,-113.03 106.05 12/09/2016 22:08:35 81.08,-113.06 106.03 0.63 45
6
